Location: Songkhla
(7.2000°N, 100.6000°E)
Time: 19:58:52
(UTC+07:00)

ISS - Pass Details

Date: 22 April 2026
Orbit: 414 x 424 km, 51.6° (Epoch: 19 May)

Event Time Altitude Azimuth Distance (km) Brightness Sun altitude
Rises 12:27:10 0° 319° (NW) 2,367 0.1 84.3°
Reaches altitude 10° 12:29:16 10° 315° (NW) 1,503 -0.7 84.0°
Maximum altitude 12:32:36 60° 235° (SW) 487 -2.2 83.6°
Drops below altitude 10° 12:35:57 10° 154° (SSE) 1,504 -0.9 83.0°
Sets 12:38:04 0° 150° (SSE) 2,367 0.0 82.6°
